STARLINK-32688 (62193 NORAD) Tracking and Keplerian Element Data

This shows tracking and keplerian element data for the satellite.

Feedback or suggestion? Click here.




ElementValue
Catalog62193
NameSTARLINK-32688
Epoch Orbit1062
Epoch Day34.92377103
Epoch Year2025
RAAN3.7417
Inclination43.0015
Eccentricity6.16E-05
Argument of Perigee288.7149
Mean Anonmoly71.3638
Mean Motion15.32092881
Decay Rate1.36E-05
L11 62193U 24229B 25034.92377103 .00001360 00000+0 51658-4 0 9994
L22 62193 43.0015 3.7417 0000616 288.7149 71.3638 15.32092881 10626



Live tracking and technical data element details for STARLINK-32688 (NORAD 62193). STARLINK-32688 can be tracked NOW for your location showing map with azimuth and elevation plus other details from your city location.







IsCatalogInMostPopularTable: catalog: 62193, numindb: 17
Update: records affected: 1



GetName: 62193 STARLINK-32688

Hit Count: updated at: Mon, 19 May 2025 03:20:06 GMT